Location: Bozburun Tepe
(36.6333°N, 29.7000°E)
Time: 11:22:36
(UTC+00:00)

Daily predictions for brighter satellites

Satellite Brightness Start Highest point End
(mag) Time Altitude Azimuth Time Altitude Azimuth Time Altitude Azimuth
SL-8 Rocket 4.2 16:55:50 10° SSE 17:01:53 55° E 17:08:00 10° NNE
USA 238 DEB 4.4 16:55:45 10° NNW 17:03:03 49° NE 17:10:52 10° SE
USA 238 4.4 16:55:56 10° NNW 17:03:13 48° NE 17:11:02 10° SE
Spot 4 Rocket 4.2 16:59:14 10° SSE 17:04:21 84° WSW 17:09:29 10° NNW
Cosmos 2278 Rocket 2.4 17:00:18 10° NNW 17:05:51 53° ENE 17:11:22 10° SE
OAO 3 Copernicus 4.3 17:02:56 10° W 17:07:56 75° S 17:12:56 10° E
Timation 2 Rocket 4.4 17:03:11 10° NNW 17:09:28 51° ENE 17:15:57 10° SE
SL-8 R/B 4.0 17:06:26 10° WSW 17:11:09 73° NW 17:15:52 10° NE
OAO 2 Rocket 3.5 17:06:28 10° WSW 17:11:38 66° S 17:16:42 10° E
Cosmos 1125 Rocket 3.6 17:06:53 10° S 17:11:58 57° ESE 17:17:07 10° NNE
Cosmos 2341 Rocket 4.0 17:08:26 10° S 17:14:36 67° E 17:20:52 10° NNE
ERS-1 Rocket 4.5 17:14:38 10° ESE 17:18:04 19° ENE 17:21:30 10° NNE
Cosmos 2366 rocket 3.9 17:13:21 10° S 17:19:26 69° E 17:25:32 10° NNE
COBE Rocket 4.3 17:15:55 10° N 17:20:59 73° WNW 17:26:06 10° SSW
In-Cosmos 22 Rocket 4.1 17:18:33 10° N 17:23:53 86° E 17:29:14 10° S
Cosmos 44 3.5 17:24:09 10° S 17:28:52 49° ESE 17:33:52 10° NE
SL-16 R/B 2.7 17:26:19 10° SSE 17:31:22 35° ESE 17:36:27 10° NE
NOSS 3 (A) 3.6 17:32:06 10° SSW 17:34:01 40° ESE 17:35:25 13° NE
Okean O Rocket 3.7 17:38:37 10° ENE 17:39:38 11° ENE 17:40:45 10° NE
Cosmos 1378 Rocket 4.1 17:37:35 10° N 17:41:38 36° ENE 17:44:32 17° SE
Longmarch 3A Rocket 4.4 17:37:49 10° SW 17:44:47 17° S 17:47:35 12° SSE
SPOT 5 2.6 17:41:37 10° SSE 17:46:12 81° ENE 17:50:36 10° N
CZ-4 R/B 1.4 17:43:55 16° SE 17:46:38 48° ENE 17:50:12 10° N
Cosmos 1656 Rocket 4.3 17:48:04 10° N 17:53:07 37° ENE 17:56:02 22° ESE
Cosmos 1821 Rocket 4.0 17:48:41 10° S 17:54:56 87° E 18:01:18 10° N
IRAS Rocket 4.2 17:49:58 10° SSE 17:55:27 77° ENE 18:00:56 10° NNW
Terra 2.4 17:53:32 22° ESE 17:55:53 36° ENE 18:00:10 10° N
Cosmos 1733 Rocket 3.4 17:51:59 10° SSW 17:56:18 68° W 18:00:41 10° N
CZ-4B R/B 3.6 17:55:16 15° SSE 17:58:13 86° ENE 18:02:04 10° N
Cosmos 1025 Rocket 3.8 17:54:43 10° NNE 17:58:32 31° ENE 17:59:43 27° ESE
Cosmos 2237 Rocket 4.1 17:54:16 10° SW 17:59:22 33° WNW 18:04:30 10° N
Resurs 01 Rocket 4.3 17:58:41 10° SW 18:01:42 18° W 18:04:45 10° NW
Cosmos 2242 Rocket 3.5 17:57:38 10° N 18:02:05 89° E 18:05:50 14° S
Helios 1A Rocket 2.5 17:59:47 10° N 18:02:59 70° WNW 18:06:07 10° SSW
CSL-04 Rocket 3.9 17:59:11 10° S 18:04:42 76° WSW 18:10:16 10° NNW
Meteor 2-15 Rocket 4.5 17:58:52 10° S 18:04:56 84° W 18:11:04 10° N
Cosmos 2150 Rocket 4.0 18:00:59 10° S 18:05:58 55° ESE 18:11:01 10° NNE
Meteor 2-16 Rocket 4.5 18:11:10 10° N 18:17:14 59° E 18:20:28 28° SSE
USA 59 Rocket 0.0 18:16:35 10° NNW 18:20:24 88° ENE 18:22:13 38° SSE
Cosmos 1400 Rocket 4.5 18:17:17 10° SW 18:20:29 30° WNW 18:23:43 10° NNW
Gbstr 26 Del rocket 3.3 18:14:52 10° SW 18:20:29 65° SE 18:24:22 15° ENE
Cosmos 1346 Rocket 2.5 18:17:12 10° N 18:20:44 56° E 18:20:53 56° E
OAO 3 Rocket 3.2 18:16:12 10° W 18:20:47 61° S 18:22:04 43° SE
Feng Yun 1-1 Rocket 4.2 18:17:09 20° SSE 18:21:06 88° WSW 18:26:33 10° NNW
ASTEX 1 3.9 18:20:30 36° ESE 18:21:27 40° ENE 18:26:02 10° N
SL-4 R/B 1.6 18:18:31 10° SW 18:22:16 77° SE 18:23:54 33° ENE
Cosmos 1943 Rocket 4.2 18:18:20 10° NW 18:22:50 25° WSW 18:27:18 10° SSW
Meteor 1-31 Rocket 3.7 18:21:37 18° SSW 18:23:52 40° W 18:27:12 10° NNW
Dummy Sat-02 4.4 18:24:50 58° SSE 18:25:28 82° E 18:29:03 10° N
ADEOS 3.5 18:25:50 35° SSE 18:28:02 73° ENE 18:33:14 10° N
Cosmos 1869 4.2 18:32:16 30° NE 18:32:16 30° NE 18:34:22 10° NNE
MOS 1 4.3 18:27:44 24° S 18:31:13 82° WSW 18:36:54 10° NNW
CBERS 1 LM4 rocket 4.3 18:29:52 34° S 18:31:54 83° WSW 18:36:40 10° NNW
Cosmos 2369 Rocket 2.9 18:27:08 10° N 18:32:15 36° ENE 18:33:12 33° E
Cosmos 2285 Rocket 3.9 18:25:56 10° SSW 18:32:18 89° ESE 18:38:40 10° NNE
USA 234 3.6 18:28:22 10° NE 18:34:51 66° NW 18:41:18 10° WSW
SL-08 R/B 3.4 18:33:44 10° N 18:38:38 79° WNW 18:42:30 16° SSW
Cosmos 1943 3.3 18:41:49 50° SE 18:42:22 52° ESE 18:47:52 10° NNE
CZ-4B R/B 3.3 18:41:50 32° S 18:44:30 75° WSW 18:50:10 10° NNW
Cosmos 2221 Rocket 3.4 18:40:45 10° N 18:45:11 75° E 18:45:17 75° E
YAOGAN 11 3.9 18:41:08 10° NNE 18:45:27 85° ESE 18:45:52 72° S
SL-08 R/B 4.4 18:45:13 10° N 18:51:27 74° E 18:53:09 50° SSE
OAO 2 Rocket 3.2 18:51:00 10° W 18:56:04 71° S 18:56:04 71° S
ERS-1 Rocket 3.9 18:54:02 27° SSW 18:56:22 44° W 19:01:09 10° NNW
NOSS 2-1 (D) 4.4 18:56:03 10° NW 18:59:48 43° WSW 19:00:11 42° SW
Okean-O 2.8 19:07:13 67° NNW 19:07:13 67° NNW 19:11:03 10° NNW
NOSS 2-1 (E) 4.3 19:04:14 10° NW 19:07:43 47° WSW 19:07:43 47° WSW
Cosmos 1934 Rocket 4.3 19:10:21 26° SSW 19:13:57 62° W 19:20:06 10° N
CZ-4B R/B 4.3 19:15:34 38° NNE 19:15:34 38° NNE 19:18:51 10° N
Okean O Rocket 2.2 19:15:51 54° WNW 19:15:51 54° WNW 19:19:32 10° NNW
SL-16 R/B 4.0 19:10:34 10° WSW 19:15:26 29° WNW 19:20:21 10° N
Ariane Rocket 3.9 19:17:09 36° NE 19:17:09 36° NE 19:20:40 10° N
Cosmos 1782 Rocket 4.5 19:21:40 45° NW 19:21:40 45° NW 19:24:59 10° N
Spot 2 Rocket 3.9 19:23:16 54° WSW 19:23:20 54° W 19:28:16 10° NNW
Milstar 3 4.0 19:17:29 10° SW 19:41:40 - E 19:24:35 43° S
USA 245 4.4 19:28:49 55° N 19:28:49 55° N 19:32:59 10° NNW
ATLAS 5 CENTAUR R/B 4.3 19:31:29 10° NNE 19:31:56 11° NNE 19:31:56 11° NNE
Terra 3.9 19:32:10 18° WSW 19:33:28 19° W 19:36:50 10° NW
Cosmos 1140 Rocket 4.2 19:29:10 10° NNW 19:32:51 46° N 19:32:51 46° N
NOSS 3-1 (C) 4.1 19:26:50 10° NNW 19:34:25 80° ENE 19:35:43 67° SE
Cosmos 967 Rocket 4.4 19:31:58 10° NNW 19:38:09 82° WNW 19:38:09 82° WNW
BREEZE-M DEB (TANK) 3.8 19:39:52 10° NW 19:43:47 63° NE 19:43:55 63° NE
COSMOS 2455 3.8 19:53:46 10° NNW 19:58:10 41° NNE 19:58:10 41° NNE
SJ 16-02 4.1 20:03:28 10° N 20:04:02 13° N 20:04:02 13° N
Cosmos 2369 Rocket 3.9 20:11:24 10° NW 20:14:59 26° W 20:14:59 26° W
NOSS 3-1 (A) 4.2 20:26:30 10° NNW 20:33:20 75° NNW 20:33:20 75° NNW
ATLAS 2AS CENTAUR R/B 3.9 21:38:07 37° N 21:38:07 37° N 21:42:21 10° NNE
ACS3 Solar Sail 4.0 21:59:34 10° NE 22:01:13 16° NE 22:01:13 16° NE
Cosmos 1980 Rocket 4.3 22:24:39 10° NNW 22:26:39 22° N 22:26:39 22° N
ATLAS 3B R/B 3.8 22:50:56 10° NNW 22:55:41 41° NNW 22:55:41 41° NNW
Cosmos 2082 Rocket 4.0 23:02:51 27° N 23:02:51 27° N 23:05:28 10° NNE
Cosmos 2333 Rocket 4.3 22:57:29 10° N 23:01:34 20° NE 23:02:07 20° ENE
SL-16 R/B 3.6 23:23:41 10° N 23:27:50 34° NE 23:27:50 34° NE
ACS3 Solar Sail 2.9 23:40:59 10° N 23:44:47 36° NNW 23:44:47 36° NNW
IDEFIX/ARIANE 42P 4.0 23:43:28 10° NNE 23:46:20 34° NNE 23:46:20 34° NNE
ADEOS Rocket 3.7 23:43:53 10° NNE 23:51:33 65° E 23:52:01 64° ESE
